This demonstration page uses our WeatherBlox Daily Observations layout. Learn more.

Left ArrowRight Arrow

38.20091, -84.87328

Hourly Observations for July 16, 2020

Temp ( °F °C ) Dew Point ( °F °C ) Humidity (%) Winds ( mph kmh ) Pressure ( in mb ) Visibility ( mi km ) Precip ( " mm )
12:53 am 00:53 Clear 77 25 68 20 74 74 Calm 29.98 1015 10 16 0.00 0.00
1:53 am 01:53 Clear 76 24.4 68 20 77 77 Calm 29.98 1015 10 16 0.00 0.00
2:53 am 02:53 Clear 79 26.1 67 19.4 67 67 SSW 7 11 29.97 1015 10 16 0.00 0.00
3:53 am 03:53 Clear 79 26.1 67 19.4 67 67 S 10 17 29.93 1014 10 16 0.00 0.00
4:53 am 04:53 Clear 79 26.1 67 19.4 67 67 S 14 22 29.91 1013 10 16 0.00 0.00
5:53 am 05:53 Mostly Clear 80 26.7 67 19.4 64 64 SW 13 20 29.92 1013 10 16 0.00 0.00
6:53 am 06:53 Sunny 79 26.1 67 19.4 67 67 SSW 10 17 29.95 1014 10 16 0.00 0.00
7:13 am 07:13 Mostly Cloudy 79 26.1 67 19.4 67 67 SSW 13 20 29.95 1014 10 16 0.00 0.00
7:28 am 07:28 Partly Cloudy 79 26.1 67 19.4 67 67 SSW 12 19 29.95 1014 10 16 0.00 0.00
7:53 am 07:53 Sunny 79 26.1 67 19.4 67 67 SSW 12 19 29.97 1015 10 16 0.00 0.00
8:53 am 08:53 Sunny 82 27.8 70 21.1 67 67 SW 10 17 30.00 1016 10 16 0.00 0.00
9:53 am 09:53 Cloudy 82 27.8 72 22.2 72 72 SW 13 20 30.01 1016 10 16 0.00 0.00
10:53 am 10:53 Cloudy 81 27.2 73 22.8 77 77 WSW 7 11 30.03 1017 10 16 0.00 0.00
11:53 am 11:53 Cloudy 84 28.9 74 23.3 72 72 W 8 13 30.05 1018 10 16 0.00 0.00
12:10 pm 12:10 Cloudy with Nearby Thunderstorms 84 28.9 74 23.3 72 72 SW 13 20 30.03 1017 10 16 0.00 0.00
12:50 pm 12:50 Cloudy 84 29 73 23 70 70 WSW 9 15 30.04 1017 10 16 0.00 0.00
12:53 pm 12:53 Mostly Cloudy 84 28.9 74 23.3 72 72 W 9 15 30.05 1018 10 16 0.00 0.00
1:53 pm 13:53 Cloudy 85 29.4 75 23.9 72 72 SW 8 13 30.05 1018 10 16 0.00 0.00
2:53 pm 14:53 Mostly Cloudy 86 30 75 23.9 70 70 W 10 17 30.04 1017 10 16 0.00 0.00
3:15 pm 15:15 Mostly Cloudy 86 30 75 23.9 70 70 SW 12 19 30.02 1017 10 16 0.00 0.00
3:53 pm 15:53 Mostly Cloudy 86 30 75 23.9 70 70 SW 9 15 30.04 1017 10 16 0.00 0.00
4:53 pm 16:53 Mostly Sunny 90 32.2 76 24.4 63 63 WSW 12 19 30.02 1017 10 16 0.00 0.00
5:53 pm 17:53 Mostly Cloudy 87 30.6 75 23.9 67 67 WSW 6 9 30.03 1017 10 16 0.00 0.00
6:23 pm 18:23 Cloudy with Nearby Thunderstorms 86 30 75 23.9 70 70 S 14 22 30.02 1017 10 16 0.00 0.00
6:42 pm 18:42 Cloudy with Light Rain 80 26.7 74 23.3 82 82 SSW 13 20 30.03 1017 3 5 0.06 1.52
6:44 pm 18:44 Cloudy with Heavy Rain 80 26.7 74 23.3 82 82 SSW 10 17 30.03 1017 2 3 0.10 2.54
6:53 pm 18:53 Cloudy with Light Rain 80 26.7 75 23.9 85 85 SSW 9 15 30.04 1017 3 4 0.11 2.79
6:56 pm 18:56 Cloudy with Light Rain 80 26.7 76 24.4 87 87 SSW 9 15 30.02 1017 7 11 0.00 0.00
7:53 pm 19:53 Mostly Sunny 81 27.2 76 24.4 85 85 SW 7 11 30.04 1017 10 16 0.00 0.00
8:53 pm 20:53 Mostly Sunny 81 27.2 77 25 88 88 NW 3 6 30.05 1018 9 14 0.00 0.00
9:53 pm 21:53 Mostly Cloudy 80 26.7 72 22.2 76 76 NW 6 9 30.07 1018 10 16 0.00 0.00
10:53 pm 22:53 Clear 78 25.6 71 21.7 79 79 Calm 30.08 1019 10 16 0.00 0.00
11:53 pm 23:53 Clear 76 24.4 70 21.1 82 82 NW 3 6 30.09 1019 10 16 0.00 0.00

Powered by AerisWeather